Location: Eyeline Observatory
(43.2182°N, 78.8632°W)
Time: 13:34:52
(UTC-05:00)

Vanguard 2 - Pass Details

Date: 02 February 2018
Orbit: 553 x 2939 km, 32.9° (Epoch: 22 February)

Event Time Altitude Azimuth Distance (km) Brightness Sun altitude
Rises 23:14:50 0° 214° (SSW) 2,707 - -59.0°
Reaches altitude 10° 23:18:06 10° 183° (S) 1,860 - -59.3°
Maximum altitude 23:19:56 13° 156° (SSE) 1,762 - -59.5°
Drops below altitude 10° 23:21:55 10° 129° (SE) 2,041 - -59.7°
Sets 23:25:55 0° 101° (E) 3,277 - -60.1°
